Vorticity
8 -1 1 10 -0 -6 -3 19 6 -3 -1 15 -1 6 11 5 14 11 4 4 6 1 2 6 8 17 10 13 9 10 13 13 11 8 5 6 5 6 6 6 6 6 6 7
10 -7 22 12 2 -1 4 9 -4 3 -3 3 5 14 7 5 11 9 1 4 10 13 8 5 15 6 14 10 9 9 8 6 6 6 3 2 2 3 6 7 7 7 7 7
6 46 10 13 4 2 -4 0 5 0 -3 -1 14 32 26 37 26 19 21 1 13 7 5 11 5 17 9 9 9 6 5 5 5 5 5 7 8 10 11 10 9 9 8 8
-5 -69 15 12 10 9 -3 7 -5 -5 1 7 -19 -3 -2 10 32 30 21 20 17 7 11 5 18 8 8 4 5 6 6 5 5 4 6 11 11 11 9 9 8 7 6 5
24 1 20 -8 6 5 17 14 1 3 10 11 18 24 27 -24 30 18 26 15 6 11 9 16 8 6 4 3 5 5 6 4 3 7 12 11 9 8 8 8 7 6 5 4
-9 30 37 13 -4 1 -16 9 3 8 4 26 27 2 14 15 11 30 18 8 4 9 13 8 4 5 3 6 3 0 3 5 8 12 10 9 8 6 7 6 5 5 6 5
-24 39 6 17 26 6 -8 -11 7 16 13 6 9 24 -33 -9 3 -30 27 15 5 7 10 6 4 5 5 0 1 2 5 6 8 8 6 6 5 6 7 7 7 7 5 5
-14 22 21 45 25 2 9 8 -13 6 8 6 20 15 14 14 25 21 28 5 10 7 10 5 5 4 -1 1 -2 4 6 6 8 5 4 5 5 5 5 8 8 6 8 2
-14 10 3 14 12 -11 37 5 -22 -0 9 7 6 16 7 19 27 10 35 9 9 6 9 5 4 6 -1 -1 -5 12 5 6 5 4 4 6 2 8 9 9 7 5 3 -6
18 -3 31 0 17 24 -13 11 10 0 7 6 17 15 4 -10 8 16 28 13 8 4 6 5 6 3 -5 4 -3 15 4 5 3 2 2 3 8 11 8 5 3 6 7 6
49 -11 45 2 8 8 -3 -9 -7 13 -11 9 5 18 8 -15 12 17 24 11 8 4 5 4 4 2 -12 10 5 11 4 3 1 3 2 6 10 6 1 1 2 6 16 16
-1 21 1 10 -19 6 22 2 -4 -19 17 3 -10 4 -48 37 35 21 15 15 9 3 2 2 2 -2 2 10 13 3 5 2 1 -0 4 10 6 1 4 2 -3 13 11 12
-13 48 -14 35 12 24 11 -1 3 -1 -21 2 -15 5 -31 20 16 14 13 7 3 1 1 1 5 -11 15 12 4 3 7 -0 0 5 9 4 3 2 9 5 6 16 12 11
3 37 -5 -16 37 -0 9 11 5 12 4 -7 -13 -8 0 -21 -8 9 6 4 2 1 2 1 0 9 15 6 5 8 2 2 3 6 7 3 1 3 1 4 16 13 10 9
10 -11 11 17 -3 41 6 6 2 -3 -9 -13 8 1 6 10 7 16 11 6 5 4 4 -2 9 14 9 4 8 2 4 8 6 6 5 1 5 6 7 15 14 9 8 7
-12 8 13 16 33 6 19 11 5 5 9 9 3 -0 1 -6 13 23 10 4 3 2 -5 17 8 10 10 7 6 5 8 7 6 5 3 9 9 14 15 14 9 8 8 7
4 -9 13 14 19 21 36 17 18 15 10 6 10 11 7 11 24 7 -1 4 8 19 9 7 8 5 8 9 9 6 5 6 6 4 7 8 11 11 12 9 9 7 6 8
18 -16 -12 24 4 3 10 22 26 7 4 21 15 12 16 20 -7 6 13 12 8 7 7 4 2 12 13 10 7 5 6 6 4 6 9 12 13 12 10 9 6 6 8 5
-11 4 -1 4 3 -2 14 21 11 20 19 6 15 15 9 12 14 12 10 10 5 6 2 5 16 14 11 9 9 8 6 7 6 9 12 14 10 10 7 5 6 9 6 7
14 7 -8 17 6 -3 18 28 14 11 1 22 19 16 21 20 16 12 8 7 5 -2 11 16 13 12 11 10 8 6 5 10 9 12 12 11 9 6 6 6 8 6 8 8
-1 12 13 -2 5 17 14 7 19 4 -8 33 22 14 16 9 5 7 7 -1 2 15 14 11 10 11 9 9 7 5 8 9 12 12 11 8 5 6 5 9 7 9 9 8
10 -19 21 11 10 18 16 14 6 10 10 20 19 11 5 7 10 1 -1 10 13 11 10 10 9 8 9 8 7 9 11 12 10 9 6 6 6 6 10 8 9 10 9 9
26 -2 13 -4 23 7 15 15 15 -2 6 13 10 6 0 0 0 4 13 12 10 8 7 6 9 9 9 9 10 12 10 10 9 7 6 6 6 9 7 11 11 9 10 9
9 13 -4 13 12 3 11 13 9 13 16 11 7 1 3 6 9 14 12 8 6 6 9 9 10 11 11 11 11 11 9 8 7 6 6 7 9 9 10 11 9 10 9 11
8 22 13 4 -5 3 9 10 6 4 4 5 6 -2 9 16 11 8 5 6 7 8 10 12 12 11 11 11 11 10 8 7 5 6 9 9 9 10 9 8 10 10 12 17
5 2 3 4 8 13 9 14 6 7 7 2 6 10 10 9 7 6 7 7 9 12 13 12 11 11 12 12 9 8 6 6 7 9 9 9 9 10 8 10 11 11 15 12
Height
3063 3069 3069 3080 3089 3097 3101 3104 3108 3109 3112 3112 3111 3107 3109 3111 3111 3113 3114 3115 3117 3118 3119 3120 3121 3121 3121 3121 3121 3120 3119 3119 3118 3117 3117 3116 3114 3113 3111 3109 3107 3104 3102 3099
3064 3063 3072 3080 3088 3093 3097 3101 3104 3107 3108 3109 3107 3101 3104 3106 3108 3109 3109 3111 3113 3114 3116 3117 3118 3118 3119 3119 3118 3117 3117 3117 3116 3115 3114 3113 3111 3109 3106 3104 3101 3099 3097 3094
3054 3061 3070 3075 3083 3089 3094 3098 3101 3104 3106 3106 3103 3098 3099 3100 3101 3103 3103 3106 3108 3110 3111 3113 3114 3115 3117 3117 3116 3115 3115 3114 3113 3112 3110 3109 3106 3104 3101 3099 3096 3093 3091 3088
3057 3057 3065 3072 3079 3086 3091 3095 3100 3101 3104 3104 3104 3099 3094 3097 3096 3096 3097 3100 3103 3106 3108 3110 3111 3113 3114 3115 3114 3113 3111 3110 3109 3108 3106 3103 3101 3098 3096 3094 3091 3088 3085 3082
3051 3054 3060 3068 3073 3083 3089 3094 3099 3101 3102 3101 3102 3103 3089 3091 3090 3090 3093 3095 3099 3102 3105 3107 3109 3111 3112 3112 3111 3110 3108 3107 3105 3103 3101 3098 3096 3094 3091 3088 3085 3082 3079 3075
3048 3052 3060 3068 3075 3082 3088 3093 3097 3098 3101 3099 3096 3100 3087 3087 3087 3085 3089 3093 3096 3099 3102 3104 3106 3108 3109 3108 3108 3106 3104 3102 3100 3098 3096 3094 3092 3089 3087 3084 3082 3078 3075 3071
3042 3049 3055 3063 3072 3078 3083 3090 3095 3100 3101 3094 3092 3094 3084 3085 3085 3085 3088 3091 3094 3096 3099 3101 3104 3105 3105 3105 3104 3103 3101 3099 3096 3094 3092 3090 3087 3085 3082 3078 3075 3071 3067 3063
3041 3047 3052 3056 3063 3069 3078 3084 3088 3089 3092 3090 3090 3086 3081 3081 3082 3083 3084 3088 3091 3094 3096 3099 3101 3102 3102 3102 3100 3099 3097 3094 3092 3090 3087 3085 3081 3078 3074 3070 3066 3062 3057 3052
3041 3046 3051 3058 3064 3071 3074 3078 3086 3087 3087 3089 3084 3079 3080 3079 3079 3079 3080 3083 3088 3091 3094 3096 3098 3099 3099 3098 3097 3095 3092 3090 3088 3085 3082 3079 3075 3071 3067 3063 3058 3053 3048 3043
3038 3045 3050 3056 3063 3067 3071 3076 3083 3085 3085 3086 3081 3078 3077 3078 3077 3077 3077 3080 3084 3088 3091 3093 3094 3095 3095 3095 3092 3090 3088 3086 3083 3080 3076 3072 3068 3064 3060 3055 3050 3045 3039 3032
3036 3042 3050 3054 3056 3059 3066 3069 3075 3081 3079 3079 3082 3077 3076 3076 3076 3075 3076 3079 3082 3087 3089 3090 3091 3091 3091 3090 3088 3085 3083 3081 3077 3074 3070 3066 3061 3056 3051 3047 3041 3035 3029 3022
3036 3040 3045 3050 3055 3059 3062 3064 3070 3072 3076 3077 3078 3075 3073 3074 3073 3074 3075 3077 3081 3084 3086 3086 3087 3087 3086 3084 3082 3080 3078 3075 3071 3068 3063 3058 3054 3049 3044 3038 3032 3026 3020 3013
3034 3037 3043 3052 3056 3054 3057 3062 3067 3070 3071 3071 3075 3074 3073 3074 3073 3074 3075 3077 3080 3081 3082 3082 3082 3082 3081 3079 3077 3075 3072 3069 3065 3061 3056 3051 3046 3041 3035 3030 3023 3017 3012 3007
3033 3033 3034 3037 3038 3046 3050 3053 3059 3065 3067 3068 3066 3070 3072 3073 3074 3074 3074 3075 3076 3077 3078 3078 3077 3077 3075 3073 3071 3069 3066 3063 3058 3054 3049 3044 3038 3033 3026 3021 3015 3009 3003 2998
3031 3034 3036 3037 3040 3043 3046 3050 3054 3057 3060 3062 3061 3063 3067 3069 3069 3071 3071 3071 3072 3073 3073 3073 3072 3071 3070 3068 3066 3062 3059 3056 3051 3046 3041 3036 3029 3023 3018 3012 3006 3001 2995 2989
3029 3033 3035 3037 3038 3041 3043 3046 3049 3052 3054 3056 3056 3057 3061 3063 3064 3065 3066 3067 3067 3068 3068 3067 3066 3065 3064 3062 3058 3055 3052 3048 3044 3038 3032 3026 3021 3014 3009 3004 2999 2993 2987 2981
3027 3030 3033 3035 3036 3039 3041 3038 3041 3044 3046 3048 3048 3049 3055 3057 3058 3060 3061 3062 3062 3062 3062 3061 3060 3059 3057 3054 3051 3048 3044 3039 3035 3028 3023 3017 3012 3007 3002 2997 2990 2984 2978 2972
3024 3027 3033 3032 3035 3038 3032 3032 3035 3037 3039 3041 3041 3044 3049 3052 3053 3055 3056 3056 3056 3056 3056 3055 3054 3051 3048 3046 3043 3040 3035 3031 3026 3020 3015 3009 3005 3000 2994 2988 2981 2975 2968 2960
3023 3026 3029 3029 3030 3029 3027 3027 3029 3029 3032 3034 3035 3038 3042 3045 3047 3048 3049 3050 3050 3050 3050 3048 3045 3043 3040 3038 3035 3031 3027 3023 3019 3013 3007 3002 2997 2991 2984 2978 2972 2965 2957 2951
3020 3023 3025 3027 3025 3025 3022 3023 3025 3028 3028 3028 3030 3033 3035 3038 3041 3043 3044 3045 3045 3044 3042 3040 3037 3035 3033 3029 3026 3023 3019 3015 3010 3005 3000 2994 2988 2981 2975 2969 2962 2955 2948 2940
3015 3018 3020 3021 3020 3020 3021 3022 3023 3027 3027 3023 3025 3029 3032 3035 3038 3039 3039 3039 3039 3036 3034 3032 3030 3027 3024 3021 3018 3014 3010 3006 3002 2997 2992 2985 2978 2973 2966 2960 2954 2946 2938 2930
3008 3012 3014 3017 3018 3018 3016 3018 3021 3021 3019 3021 3023 3026 3029 3031 3032 3033 3033 3032 3030 3028 3026 3023 3020 3018 3016 3013 3010 3006 3002 2998 2994 2989 2982 2977 2972 2965 2958 2952 2944 2937 2928 2920
3005 3007 3008 3011 3010 3009 3010 3012 3014 3016 3018 3020 3022 3024 3026 3027 3027 3026 3025 3024 3022 3020 3017 3015 3013 3011 3008 3005 3001 2997 2994 2990 2985 2980 2976 2970 2964 2957 2950 2943 2935 2927 2918 2908
2999 3001 3003 3005 3005 3006 3008 3010 3012 3014 3016 3018 3020 3021 3022 3022 3021 3020 3018 3016 3014 3013 3011 3009 3006 3004 3000 2996 2993 2989 2985 2981 2977 2973 2968 2962 2957 2950 2943 2934 2925 2917 2908 2899
2996 2997 2999 3000 3002 3004 3006 3007 3009 3011 3013 3014 3015 3015 3015 3015 3014 3013 3012 3011 3009 3007 3004 3002 2999 2995 2992 2988 2983 2980 2977 2974 2969 2965 2960 2954 2948 2940 2932 2924 2915 2906 2899 2890
2992 2994 2996 2996 2998 3000 3002 3003 3005 3007 3008 3009 3009 3009 3009 3009 3008 3007 3006 3004 3002 3001 2998 2994 2990 2987 2983 2980 2976 2973 2969 2965 2961 2956 2951 2944 2936 2929 2921 2913 2907 2901 2892 2883